NCAR-RAP Real-Time Weather Data

Output produced by METARs form (12 August 2020  17:17 UTC)
found at http://weather.rap.ucar.edu/surface/
 
KEWR 121651Z VRB04KT 10SM SCT040TCU 32/22 A3000 RMK AO2 SLP158 TCU NE AND SW AND W T03170217
KEWR 121551Z 00000KT 10SM FEW032TCU SCT090 SCT250 31/22 A3001 RMK AO2 SLP163 TCU E AND SW T03110217
KEWR 121451Z VRB04KT 10SM FEW025 SCT090 BKN250 31/23 A3002 RMK AO2 SLP165 ACC OHD T03060233 53006
KEWR 121437Z 02004KT 10SM SCT025TCU SCT090 BKN250 31/23 A3002 RMK AO2 TCU NE ACC OHD T03060233
KEWR 121351Z 00000KT 10SM BKN020 BKN040 BKN140 29/24 A3001 RMK AO2 SLP162 T02940239
KEWR 121251Z 35004KT 10SM BKN015 BKN050 BKN140 28/24 A3001 RMK AO2 SLP162 T02780239 $
KEWR 121247Z 00000KT 10SM BKN015 BKN050 BKN140 27/24 A3001 RMK AO2 $
KEWR 121151Z 28004KT 10SM FEW015 FEW050 SCT090 SCT150 27/23 A3000 RMK AO2 SLP159 60000 70004 T02670233 10267 20250 53009 $
KEWR 121051Z 23005KT 10SM FEW015 SCT090 BKN180 26/24 A2999 RMK AO2 SLP154 T02610239 $
KEWR 120951Z 22005KT 10SM FEW010 FEW025 SCT045 BKN200 26/24 A2998 RMK AO2 RAB03E18 SLP153 CB DSNT E-DSNT SE AND DSNT SW MOV SE P0000 T02560239 $
KEWR 120918Z 20005KT 10SM FEW009 SCT025 SCT045 BKN220 25/24 A2997 RMK AO2 LTG DSNT E AND SW RAB03E18 P0000 T02500239 $
KEWR 120907Z 21003KT 10SM -RA SCT009 BKN024 BKN060 25/24 A2997 RMK AO2 LTG DSNT E AND SW AND W RAB03 OCNL LTGIC DSNT SW CB DSNT SW MOV E P0000 T02500239 $
KEWR 120851Z 22004KT 10SM BKN009 BKN022 OVC070 26/24 A2998 RMK AO2 SLP150 T02560239 53004 $
KEWR 120815Z 27006KT 10SM OVC009 26/24 A2998 RMK AO2 T02560239 $
KEWR 120751Z 28005KT 10SM OVC010 26/24 A2998 RMK AO2 SLP151 T02610239 $
KEWR 120651Z 21007KT 10SM BKN011 BKN250 26/24 A2996 RMK AO2 SLP144 T02560239 $
KEWR 120551Z 20009KT 10SM BKN012 BKN250 26/24 A2996 RMK AO2 SLP146 T02560239 10289 20256 51006 $
KEWR 120542Z 20009KT 10SM BKN012 BKN250 26/24 A2996 RMK AO2 T02560239 $
KEWR 120451Z 20009KT 10SM FEW012 SCT250 26/23 A2996 RMK AO2 SLP144 T02610233 403110239 $
KEWR 120351Z 19009KT 10SM FEW015 SCT250 26/23 A2995 RMK AO2 SLP143 T02610233 $
KEWR 120251Z 19008KT 10SM FEW030 SCT250 27/23 A2994 RMK AO2 SLP139 T02670228 51012 $
KEWR 120151Z 18006KT 10SM FEW030 SCT250 28/23 A2994 RMK AO2 SLP138 T02780233 $
KEWR 120051Z 18008KT 10SM FEW035 SCT250 28/23 A2992 RMK AO2 SLP132 T02830233 $
KEWR 112351Z 15007KT 10SM FEW045 FEW100 SCT250 29/23 A2991 RMK AO2 SLP127 60004 T02890233 10306 20261 56001 $
KEWR 112251Z 16008KT 10SM FEW045 FEW120 SCT250 29/23 A2991 RMK AO2 SLP127 T02940228 $
KEWR 112151Z 16008G17KT 10SM FEW045 FEW120 FEW250 30/22 A2991 RMK AO2 SLP128 T03000222 $
KEWR 112051Z 16008KT 10SM FEW040 FEW100 SCT250 30/22 A2991 RMK AO2 RAE01 TSE17 SLP129 P0000 60004 T03000217 58008 $
KEWR 112022Z 17007KT 10SM FEW032 SCT070 SCT130 BKN250 29/22 A2993 RMK AO2 RAE01 TSE17 CB DSNT NE MOV NE P0000 T02890217 $
KEWR 112009Z 16006KT 9SM TS FEW010 SCT035CB BKN070 BKN130 29/23 A2994 RMK AO2 RAE01 FRQ LTGICCG VC NE TS VC NE MOV NE VCSH P0000 T02890228 $
KEWR 111957Z 24004KT 3SM +TSRA FEW010 SCT035CB BKN050 BKN130 27/22 A2995 RMK AO2 FRQ LTGICCG OHD TS OHD MOV NE P0000 T02720222 $
KEWR 111951Z 19005KT 3SM TSRA FEW010 SCT038CB BKN050 BKN130 27/21 A2996 RMK AO2 PK WND 16028/1934 WSHFT 1926 RAB34 TSB46 SLP144 FRQ LTGICCG VC SE TS VC SE MOV NE P0004 T02670211 $
KEWR 111946Z 20008G22KT 4SM R04R/5000VP6000FT -TSRA FEW010 SCT038CB BKN065 BKN130 BKN250 27/21 A2996 RMK AO2 PK WND 16028/1934 WSHFT 1926 RAB34 TSB46 PRESRR CB OHD AND SE MOV NE P0003 $